Lapse_Rate
4.7 4.7 4.7 4.5 4.7 4.8 4.9 5.1 5.0 5.4 5.4 5.2 5.3 5.2 5.2 5.4 5.1 5.2 5.2 5.1 4.9 5.0 4.9 4.7 4.4 4.1 4.1 3.9 4.0 4.0 4.0 4.0 4.2 4.6 4.6 4.9 5.4 5.7 5.7 5.9 6.2 6.2 5.9 5.4
4.8 4.8 4.6 4.6 4.7 5.0 5.1 5.3 5.4 5.5 5.4 5.5 5.6 5.4 5.4 5.6 5.4 5.3 5.1 5.1 5.0 5.0 5.1 4.9 4.5 4.3 4.1 4.1 4.0 4.1 4.2 4.1 3.8 4.6 5.2 5.2 5.5 5.9 6.0 6.0 6.2 6.2 5.7 5.7
4.9 4.9 4.9 4.9 5.0 5.2 5.4 5.5 5.4 5.5 5.5 5.6 5.6 5.5 5.3 5.3 5.2 5.4 5.4 5.2 5.1 5.0 4.9 4.9 4.5 4.6 4.4 4.3 4.2 4.0 4.0 4.3 4.3 4.4 4.9 5.3 5.6 6.3 6.6 7.0 6.7 6.8 6.6 6.7
4.9 4.9 5.1 5.1 5.3 5.4 5.5 5.5 5.6 5.8 5.7 5.6 5.4 5.4 5.2 5.2 5.1 5.1 5.1 5.0 5.0 4.9 4.8 4.7 4.7 4.7 4.9 4.7 4.5 4.4 4.2 4.5 4.7 4.7 5.3 5.7 5.8 6.3 7.3 7.2 7.7 7.0 7.8 7.4
5.1 5.4 5.4 5.3 5.5 5.3 5.5 5.7 5.8 5.8 5.8 5.7 5.5 5.5 5.3 5.5 4.9 4.9 4.9 4.9 4.9 4.8 5.0 5.1 5.2 5.1 4.9 4.9 4.8 4.6 4.4 4.6 5.1 5.4 5.8 5.8 6.2 6.8 7.4 7.8 7.7 7.4 7.2 7.2
5.6 5.5 5.4 5.2 5.4 5.4 5.7 5.7 5.8 5.8 5.7 5.6 5.7 5.7 5.3 5.0 4.6 4.7 4.7 4.8 4.8 4.8 4.9 4.9 4.9 4.9 5.1 4.8 4.7 4.7 4.2 4.4 4.8 5.3 5.7 6.0 6.7 6.9 7.3 7.6 7.8 7.7 7.5 7.5
6.1 6.1 5.8 5.8 5.6 5.5 5.6 5.6 5.6 5.6 5.8 5.5 5.4 5.2 4.9 5.0 4.6 4.5 4.6 4.7 4.9 5.3 4.9 4.7 4.9 5.2 5.5 5.4 5.3 5.1 4.9 4.8 4.4 4.9 5.4 3.8 6.8 7.1 7.3 7.3 7.4 7.4 7.7 7.3
6.3 6.1 6.0 5.7 5.7 5.6 5.7 5.6 5.6 5.4 5.4 5.4 5.3 5.2 5.1 4.9 5.1 4.8 4.5 4.6 5.2 5.2 4.8 4.6 5.2 5.5 5.5 5.4 5.4 5.4 5.4 4.7 4.7 4.7 5.1 6.0 6.7 7.0 7.2 7.5 7.8 7.5 7.8 7.6
6.3 6.3 6.1 6.1 5.9 5.8 5.8 5.7 5.7 5.5 5.4 5.5 5.4 5.3 5.5 5.3 4.8 4.7 4.6 4.7 5.1 4.9 4.7 4.5 4.6 5.3 5.3 5.3 5.3 5.5 5.3 5.1 5.0 5.2 4.9 3.8 6.8 6.8 7.1 7.4 7.6 7.6 7.6 7.6
6.4 6.3 6.2 6.3 6.1 5.9 5.9 5.8 5.8 5.7 5.8 5.9 5.7 5.5 5.4 5.5 5.4 5.2 4.8 5.0 5.2 5.0 4.7 4.4 4.6 5.1 5.1 5.0 5.3 5.4 5.3 5.0 5.0 5.2 5.0 5.4 6.4 6.7 6.8 7.1 7.3 7.4 7.7 7.7
6.2 6.2 6.1 6.0 5.9 5.9 5.7 6.0 6.1 6.1 6.0 6.0 5.8 5.6 5.3 5.2 5.4 5.5 5.3 4.7 5.0 4.8 4.8 4.5 4.8 4.4 4.8 5.0 5.5 5.5 5.5 5.5 5.7 5.4 5.5 5.5 6.6 6.5 6.6 6.7 7.2 7.5 7.7 7.9
5.9 5.9 5.9 5.9 5.8 5.7 5.7 5.9 6.1 6.1 6.1 5.9 5.9 5.7 5.6 5.3 4.9 5.0 5.2 5.1 4.9 4.7 4.8 4.6 4.6 4.6 4.5 5.1 5.1 6.0 5.3 5.6 5.5 5.6 5.8 6.4 6.3 6.5 6.7 6.9 7.2 7.2 7.6 7.8
6.0 5.9 5.8 5.7 5.8 5.9 5.7 5.8 6.2 6.2 6.1 5.8 5.8 5.6 5.5 5.5 5.2 5.0 5.2 5.2 4.7 4.6 4.3 4.1 4.2 4.3 4.3 4.6 5.0 5.5 5.5 5.9 5.5 5.4 6.1 6.3 6.3 6.6 6.8 6.9 6.9 7.1 7.7 7.8
6.0 5.9 5.9 5.8 5.9 5.8 5.7 5.7 5.7 5.7 5.7 5.8 6.0 5.9 5.6 5.3 5.3 5.4 5.6 5.3 4.9 4.4 4.1 3.7 4.1 4.2 4.1 4.3 5.0 5.0 5.5 5.5 5.6 5.1 6.3 6.0 6.4 6.5 6.6 6.5 6.7 7.1 7.4 7.8
5.9 5.8 5.8 5.8 5.7 5.7 5.9 5.6 5.4 5.4 5.3 5.5 5.9 5.7 5.6 5.8 5.8 5.7 5.5 5.4 4.9 4.2 3.6 3.7 3.9 4.3 4.1 3.7 4.5 5.3 6.2 6.2 5.1 5.5 6.2 5.8 6.5 6.4 6.4 6.3 6.6 7.4 7.5 7.6
5.8 5.7 5.7 5.5 5.5 5.6 5.3 5.2 5.2 5.2 5.0 4.8 5.5 5.6 5.6 5.9 6.0 5.5 5.0 4.5 4.5 4.3 4.3 4.1 4.0 4.7 3.9 3.5 4.4 6.4 6.7 6.2 5.4 5.7 5.8 5.8 6.3 6.4 6.5 6.4 6.8 7.1 7.5 7.5
5.4 5.3 5.4 5.3 5.3 5.2 5.1 4.9 4.8 4.5 4.3 4.2 4.8 5.7 6.1 6.1 5.9 5.6 5.2 4.7 4.6 4.5 3.9 4.1 4.7 5.0 4.0 3.8 5.4 7.2 6.4 5.6 5.4 5.3 5.5 5.8 6.2 6.0 6.7 6.5 6.8 7.0 7.3 7.7
5.2 5.3 5.3 5.3 5.1 5.1 4.8 4.4 4.3 4.2 4.2 4.3 4.4 5.3 5.6 5.6 5.5 5.2 5.0 4.9 4.6 4.6 4.4 4.6 4.7 4.7 4.3 4.2 7.3 6.4 6.1 5.6 5.6 5.6 5.8 5.8 6.2 6.1 6.7 6.8 6.9 7.1 7.5 7.6
5.0 5.1 5.0 5.0 4.8 4.6 4.5 4.3 4.3 4.4 4.3 4.0 4.9 5.3 5.0 5.1 5.3 5.0 4.9 4.6 4.7 4.2 4.8 5.3 4.4 4.9 4.8 7.0 6.0 5.9 6.0 5.9 5.8 5.8 5.8 6.0 6.2 6.4 6.6 6.7 7.0 7.6 7.8 7.5
5.0 4.9 4.8 4.7 4.5 4.5 4.5 4.0 3.7 4.0 4.5 4.6 5.5 5.0 4.8 4.5 4.6 4.5 4.5 4.6 4.7 4.3 5.0 4.9 4.9 5.8 7.1 6.5 5.9 6.0 6.1 6.2 6.0 5.9 6.3 6.3 6.1 6.3 6.9 7.0 7.6 7.8 7.9 7.9
4.8 4.8 4.6 4.3 4.3 4.0 3.7 3.7 4.1 4.2 4.3 4.7 5.2 5.2 5.2 4.7 4.4 4.4 4.3 4.8 4.7 4.5 5.0 4.9 4.8 6.2 6.3 5.8 5.9 5.9 6.0 6.1 6.2 6.2 6.5 6.7 6.8 6.9 7.1 7.8 8.0 7.9 8.0 7.9
4.7 4.5 4.0 3.6 3.8 3.7 3.8 3.5 4.1 4.4 4.5 4.7 5.0 5.0 4.9 5.0 4.9 4.6 4.5 4.8 4.9 5.1 5.2 5.2 5.6 6.0 6.0 6.1 6.3 6.5 6.5 6.7 6.8 6.9 7.1 7.5 7.6 7.7 7.9 7.9 7.9 7.9 7.9 7.8
4.4 4.3 3.9 3.8 3.8 3.7 4.1 4.3 4.3 4.6 4.5 4.5 4.8 5.0 5.1 5.2 5.4 5.1 4.9 4.9 5.1 5.5 5.5 5.7 5.8 6.2 6.5 6.6 6.6 6.7 7.1 7.4 7.6 7.7 7.5 7.7 7.8 7.5 7.6 7.7 7.8 7.8 7.8 7.8
4.2 4.3 4.2 4.6 4.4 4.7 4.8 4.7 4.8 4.6 4.8 5.0 5.2 5.5 5.5 5.7 5.8 6.1 5.6 5.7 5.7 5.6 6.0 6.5 6.5 6.5 6.6 7.0 7.2 7.5 7.7 7.5 7.7 7.8 6.9 6.9 7.2 7.5 7.5 7.5 7.7 7.9 7.9 7.6
4.5 4.6 4.5 4.7 5.0 4.9 4.8 4.8 4.9 4.9 5.0 5.1 5.1 5.3 5.5 6.0 6.5 6.7 6.6 6.7 6.6 6.9 7.0 7.0 6.9 6.9 7.2 7.3 7.6 7.7 7.6 7.5 7.4 7.3 7.1 6.9 7.1 7.1 7.2 7.6 7.7 7.7 7.8 7.8
4.5 4.7 5.0 5.0 5.2 5.2 5.0 4.9 4.9 4.9 5.0 5.1 5.3 5.3 5.6 6.1 6.7 7.2 7.5 7.6 7.6 7.4 7.4 7.3 6.9 7.0 7.3 7.1 7.3 7.3 7.1 7.1 6.9 6.9 6.9 7.0 7.0 7.0 7.1 7.2 7.4 7.5 7.7 7.8
4.7 5.1 5.3 5.2 5.3 5.6 5.5 5.3 5.2 5.1 5.2 5.3 5.4 5.6 5.9 6.2 6.5 7.5 8.1 8.2 8.1 7.8 7.2 7.1 7.0 6.9 6.9 7.1 7.2 7.4 7.1 7.0 6.6 6.9 6.9 6.7 6.8 6.9 7.0 7.3 7.6 7.6 7.8 7.9
Wind_Speed
12 7 4 2 2 7 5 3 2 3 4 4 1 3 3 2 3 4 3 3 4 3 3 2 2 3 5 3 4 3 2 4 2 7 0 9 5 5 4 4 7 2 4 6
12 8 5 4 3 7 3 3 1 2 4 3 1 3 3 3 3 4 3 3 3 2 3 3 1 3 6 9 3 4 4 1 3 6 5 5 1 3 4 1 1 7 4 6
11 9 7 5 4 4 3 3 2 4 4 0 4 4 2 4 2 3 4 4 5 3 2 2 3 1 1 3 2 2 6 4 7 6 8 3 5 4 5 5 3 7 12 21
12 9 6 6 4 2 3 2 3 4 2 3 1 2 5 5 3 1 3 1 4 6 4 1 3 1 4 5 3 2 5 4 3 6 9 7 11 15 18 7 15 7 23 19
13 8 7 7 4 1 3 3 3 2 1 1 5 1 4 6 4 6 3 3 4 5 5 5 5 3 2 4 3 2 3 2 2 4 7 8 11 16 16 14 10 12 16 9
12 10 7 6 3 1 2 1 1 4 2 1 4 3 4 4 6 1 6 6 4 2 5 3 5 6 6 6 6 4 2 3 2 4 3 9 4 5 5 2 2 2 6 4
12 11 8 6 3 3 2 1 2 3 2 2 3 3 4 2 3 6 3 4 5 4 2 2 3 4 7 8 8 8 5 5 3 4 3 2 6 8 5 4 4 5 7 8
13 12 9 7 5 3 3 1 3 3 1 1 1 2 4 6 4 2 3 2 4 6 5 4 6 4 5 3 7 11 10 4 1 2 2 7 6 2 2 1 8 8 5 6
14 13 10 7 6 4 3 1 2 3 4 3 1 0 1 4 3 3 4 4 3 6 3 4 2 3 3 4 3 11 11 8 4 1 3 5 6 4 5 1 3 8 5 5
14 13 12 9 7 6 3 1 3 3 3 2 2 2 2 1 3 2 3 4 2 3 2 2 3 3 3 3 3 4 4 2 11 8 5 7 8 7 4 1 6 3 2 5
10 12 12 11 8 8 3 1 3 3 2 3 2 2 2 4 3 4 3 4 3 3 2 3 4 3 4 1 3 3 5 4 4 2 1 9 7 1 1 5 2 3 4 5
12 12 14 12 10 9 4 2 3 5 3 3 1 3 3 4 5 4 1 3 4 4 3 1 1 2 2 2 3 3 3 6 3 8 6 5 3 4 4 4 5 5 5 7
15 16 15 12 10 10 7 2 1 3 2 4 2 5 5 5 8 5 3 2 4 3 4 3 3 3 3 2 4 4 3 2 3 3 4 6 6 7 5 7 7 6 5 6
18 17 14 11 9 9 9 3 2 3 2 2 5 3 4 2 6 8 5 5 3 4 3 2 2 2 4 3 5 4 4 4 3 7 14 15 14 6 5 7 10 6 4 5
16 12 10 10 10 10 8 4 2 4 4 1 3 7 7 9 7 8 6 4 2 2 1 2 3 2 2 3 4 13 8 16 8 9 12 8 9 10 10 9 13 9 7 4
18 16 14 12 14 16 4 3 3 5 3 3 3 4 5 2 5 7 5 4 3 3 3 2 3 4 2 4 5 6 7 9 15 15 11 12 15 12 10 11 8 6 6 7
17 16 13 10 10 6 3 4 3 7 6 3 3 4 4 2 3 2 3 2 2 3 3 3 3 3 4 3 16 9 9 10 13 14 14 18 17 12 7 7 8 7 4 6
15 14 13 14 12 8 3 2 3 6 3 2 2 4 4 1 1 1 1 2 1 1 2 1 2 2 2 6 14 15 16 18 20 22 19 17 21 12 8 7 6 7 6 5
16 15 14 6 3 2 3 6 7 7 3 2 2 2 3 2 1 2 3 2 0 1 3 3 4 3 6 11 10 13 13 10 13 14 11 11 9 10 9 7 7 7 5 5
14 4 3 1 2 11 10 4 2 3 1 1 3 2 3 3 1 1 2 1 3 1 4 2 3 7 15 13 16 17 18 15 12 10 11 7 4 4 7 6 5 6 6 4
2 2 2 1 9 3 2 2 2 1 2 3 4 5 5 1 3 3 4 2 2 3 4 5 3 4 5 12 15 17 17 17 18 17 14 7 7 6 8 7 6 6 6 4
5 4 4 1 2 2 3 2 3 3 4 3 3 4 4 3 3 2 3 3 1 5 4 3 3 3 16 17 14 7 4 6 10 11 10 5 9 9 7 6 6 5 5 4
2 3 2 3 0 1 5 4 2 2 2 1 0 2 2 2 1 1 2 2 5 1 2 3 2 9 14 15 9 6 11 12 14 9 10 9 8 5 5 5 3 3 2 2
2 3 1 4 3 3 3 1 1 2 3 3 2 1 2 1 2 3 4 4 1 3 2 1 2 8 11 15 15 11 10 7 5 6 6 8 6 4 4 4 3 2 1 2
2 2 3 4 3 1 1 1 2 2 2 2 3 3 2 3 4 2 2 2 4 3 1 2 2 5 7 8 11 12 13 10 5 1 1 3 3 3 3 2 2 3 3 3
2 1 1 2 3 3 2 0 2 2 1 2 0 2 3 4 3 4 5 3 3 1 1 1 1 3 3 6 4 5 2 4 6 4 1 3 4 4 4 4 6 6 4 5
1 3 3 3 2 4 2 2 2 1 2 2 1 4 7 2 3 3 3 2 1 3 3 1 4 5 6 8 8 6 7 6 6 6 4 4 3 4 3 6 5 5 6 6
Wind_Direction
178 193 208 210 24 346 95 100 83 299 38 51 72 137 164 100 125 52 80 81 85 93 86 83 57 106 147 156 150 123 129 144 314 302 175 151 139 184 178 122 292 240 239 250
179 182 181 154 62 44 117 102 148 334 77 132 246 243 97 84 133 165 142 110 98 90 126 134 234 104 76 60 81 149 175 16 0 348 4 351 16 240 184 118 56 236 229 263
172 169 163 151 105 50 89 87 84 333 42 286 138 139 161 115 58 55 98 118 99 90 172 175 192 24 76 63 112 50 127 160 162 195 216 179 313 260 223 162 213 265 259 278
170 168 170 158 136 81 95 57 226 190 216 296 185 130 160 139 150 109 104 81 179 168 179 158 223 77 355 358 41 68 133 191 166 235 246 242 260 277 290 210 244 218 273 277
172 174 171 166 148 125 87 128 133 23 135 140 145 56 188 165 153 147 200 170 164 136 162 188 199 134 167 214 31 72 26 269 266 278 248 253 277 286 281 275 277 278 269 299
176 182 170 167 153 75 110 293 353 103 306 126 101 211 188 202 128 76 160 162 119 127 152 168 198 201 198 200 177 170 198 159 82 265 315 321 326 240 279 275 339 302 1 303
175 183 173 155 137 70 124 195 105 86 251 118 182 189 182 10 166 141 121 119 127 154 164 20 347 292 237 214 222 177 182 155 140 257 4 12 233 299 255 242 235 273 251 278
176 182 173 163 144 77 84 8 99 117 161 198 298 278 184 124 90 97 141 92 132 130 61 42 358 339 4 273 218 202 194 136 303 149 228 273 284 158 289 309 300 248 251 277
178 181 179 166 158 129 78 19 103 98 118 252 8 316 328 157 147 40 70 49 89 73 86 78 137 257 233 297 277 198 188 191 161 133 186 248 233 261 256 333 263 253 226 272
172 177 184 174 173 162 88 10 76 90 110 275 69 143 179 50 94 122 129 168 61 68 95 110 176 248 236 227 209 193 171 170 206 225 224 262 244 229 271 104 242 295 219 260
170 183 181 176 177 167 112 282 60 111 126 277 11 357 63 15 59 137 196 52 346 45 110 139 231 213 242 291 245 195 186 176 196 127 127 267 215 232 338 238 244 210 205 241
188 189 184 179 175 167 129 68 35 90 92 233 291 264 232 171 183 141 354 174 163 176 93 255 80 302 330 177 256 278 240 192 206 181 213 224 259 223 225 194 185 221 216 227
196 183 175 181 178 170 143 124 111 56 59 316 21 253 269 182 199 171 145 289 171 169 173 167 199 229 139 216 239 242 270 312 235 8 258 239 285 300 225 208 221 220 250 227
145 153 160 162 160 168 156 106 150 97 123 104 283 300 288 235 169 187 176 161 89 103 101 104 185 181 179 232 246 236 207 329 263 272 278 282 263 248 286 264 264 221 188 195
135 141 158 167 175 167 129 85 166 131 122 230 283 310 255 245 178 196 188 166 151 90 117 212 222 220 220 238 270 257 225 250 246 254 259 247 269 271 268 283 286 233 181 220
122 118 117 122 126 125 84 23 329 185 115 82 324 284 292 274 170 181 180 170 150 162 170 203 233 231 160 243 256 231 203 223 233 245 263 262 268 260 262 285 218 178 198 223
125 122 116 121 141 82 113 177 220 154 107 94 310 293 268 236 105 52 72 66 157 150 185 218 198 225 187 231 265 250 264 276 278 272 274 289 271 263 249 222 196 196 140 133
125 124 119 108 104 89 43 234 87 92 94 107 271 273 342 87 34 61 74 123 143 164 206 270 189 301 172 254 252 262 255 252 258 262 266 253 263 260 240 201 184 140 147 147
124 119 114 72 58 91 228 182 136 64 113 167 169 218 256 7 17 92 16 87 62 301 226 225 169 218 226 243 260 263 260 239 251 256 257 273 283 244 206 174 158 155 155 164
119 76 64 23 232 141 104 32 73 19 326 233 246 264 276 100 118 163 79 130 221 214 231 117 196 252 256 263 260 264 271 261 251 256 267 276 247 198 182 189 158 165 167 172
56 87 93 258 139 58 52 115 184 156 250 216 236 211 229 277 141 203 187 210 211 232 235 174 233 265 250 247 247 256 258 260 255 244 251 234 230 189 156 143 155 143 146 166
172 145 110 101 52 43 99 208 167 199 240 215 193 219 186 257 130 127 209 218 265 249 140 195 254 296 340 328 296 319 329 313 255 233 241 169 114 116 125 136 142 144 161 152
63 64 90 85 106 130 173 213 240 227 223 215 262 334 186 349 136 199 120 209 238 37 70 224 57 332 350 344 335 31 57 36 24 39 80 97 111 118 124 134 120 132 94 42
95 129 76 158 207 235 201 188 216 302 15 349 247 213 205 221 190 188 205 227 33 307 257 259 317 12 5 11 7 359 17 50 60 83 53 59 69 89 84 87 104 67 318 262
89 103 196 211 226 214 40 348 29 54 328 22 347 302 191 250 258 209 191 221 242 202 218 239 320 356 357 10 12 8 10 3 9 328 97 44 13 11 340 340 329 344 323 307
67 213 329 303 65 341 15 196 202 201 168 349 358 269 277 258 225 223 197 225 211 189 4 44 173 284 314 295 267 284 230 252 285 303 164 219 218 225 245 283 295 282 257 262
229 261 228 188 221 218 215 155 273 256 68 173 223 251 230 272 242 220 7 41 76 274 266 243 239 250 278 301 302 277 273 280 290 315 312 263 223 215 249 267 273 247 251 239